New Bedford, MA

2:45 PM EDT on July 23, 2017 (GMT -0400)
New Bedford Regional

Weather History for KEWB - November, 2013

Change the Weather History Date:

Thursday, November 7, 2013

  Actual Average Record
Temperature  
Mean Temperature 53 °F -  
Max Temperature 63 °F 54 °F 72 °F (1975)
Min Temperature 42 °F 41 °F 24 °F (2002)
Degree Days  
Heating Degree Days 12    
Growing Degree Days 3 (Base 50)    
Moisture  
Dew Point 55 °F    
Average Humidity 91    
Maximum Humidity 100    
Minimum Humidity 70    
Precipitation  
Precipitation 0.71 in - - ()
Sea Level Pressure  
Sea Level Pressure 29.84 in    
Wind  
Wind Speed 10 mph (SW)    
Max Wind Speed 18 mph    
Max Gust Speed 26 mph    
Visibility 7 miles    
Events Rain    
Averages and records for this station are not official NWS values.
T = Trace of Precipitation, MM = Missing Value Source: NWS Daily Summary

Daily Weather History Graph

Daily Weather History Graph

Search for Another Location

Airport or City:

Trip Planner

Search our weather history database for the weather conditions in past years. The results will help you decide how hot, cold, wet, or windy it might be!

Date:

Astronomy

Nov. 07, 2013 Rise Set
Actual Time 6:23 AM EST 4:31 PM EST
Civil Twilight 5:54 AM EST 5:00 PM EST
Nautical Twilight 5:20 AM EST 5:33 PM EST
Astronomical Twilight 4:48 AM EST 6:06 PM EST
Moon 10:30 AM EST (11/7) 8:38 PM EST (11/7)
Length of Visible Light 11h 06m
Length of Day
10h 07m
Waxing Crescent, 22% of the Moon is Illuminated
Nov 7
Waxing Crescent
Nov 10
First Quarter
Nov 17
Full
Nov 25
Last Quarter
Dec 2
New

Hourly Weather History & Observations

Time (EST) Temp. Windchill Dew Point Humidity Pressure Visibility Wind Dir Wind Speed Gust Speed Precip Events Conditions
12:53 AM 55.0 °F - 53.1 °F 93% 30.06 in 10.0 mi SSW 8.1 mph - N/A   Clear
1:15 AM 55.4 °F - 53.6 °F 94% 30.04 in 10.0 mi South 8.1 mph - N/A   Mostly Cloudy
1:53 AM 57.0 °F - 54.0 °F 89% 30.03 in 10.0 mi SSW 9.2 mph - N/A   Overcast
2:21 AM 57.2 °F - 55.4 °F 94% 30.01 in 10.0 mi SSW 10.4 mph - N/A   Scattered Clouds
2:53 AM 59.0 °F - 55.9 °F 90% 30.00 in 10.0 mi SSW 10.4 mph - N/A   Mostly Cloudy
3:46 AM 60.8 °F - 57.2 °F 88% 29.98 in 7.0 mi SSW 18.4 mph 21.9 mph 0.00 in Rain Light Rain
3:53 AM 60.1 °F - 57.9 °F 93% 29.98 in 6.0 mi SSW 16.1 mph 24.2 mph 0.00 in Rain Light Rain
4:50 AM 59.0 °F - 57.2 °F 94% 29.95 in 4.0 mi SSW 16.1 mph 24.2 mph 0.02 in Rain Light Rain
4:53 AM 59.0 °F - 57.9 °F 96% 29.95 in 4.0 mi SSW 15.0 mph 24.2 mph 0.02 in Rain Light Rain
5:11 AM 60.8 °F - 57.2 °F 88% 29.93 in 3.0 mi SSW 12.7 mph 20.7 mph 0.04 in Rain Rain
5:20 AM 60.8 °F - 57.2 °F 88% 29.93 in 2.0 mi SSW 12.7 mph 19.6 mph 0.09 in Rain Heavy Rain
5:28 AM 60.8 °F - 59.0 °F 94% 29.92 in 2.5 mi SSW 9.2 mph 19.6 mph 0.11 in Rain Rain
5:40 AM 60.8 °F - 59.0 °F 94% 29.92 in 2.0 mi SW 5.8 mph - 0.15 in Rain Rain
5:53 AM 60.1 °F - 59.0 °F 96% 29.91 in 2.0 mi SSW 5.8 mph - 0.19 in Rain Rain
6:05 AM 60.8 °F - 59.0 °F 94% 29.90 in 1.8 mi SW 9.2 mph - 0.06 in Rain Heavy Rain
6:20 AM 60.8 °F - 59.0 °F 94% 29.89 in 2.5 mi SSW 9.2 mph - 0.12 in Rain Rain
6:27 AM 60.8 °F - 59.0 °F 94% 29.89 in 3.0 mi SSW 9.2 mph - 0.14 in Rain Rain
6:34 AM 60.8 °F - 59.0 °F 94% 29.88 in 5.0 mi SSW 11.5 mph - 0.14 in Rain Light Rain
6:42 AM 60.8 °F - 59.0 °F 94% 29.88 in 4.0 mi SSW 9.2 mph - 0.15 in Rain Light Rain
6:51 AM 60.8 °F - 60.8 °F 100% 29.88 in 1.8 mi SW 9.2 mph - 0.17 in Rain Rain
6:52 AM 61.0 °F - 60.1 °F 97% 29.88 in 1.8 mi SSW 9.2 mph - 0.17 in Rain Rain
7:06 AM 60.8 °F - 60.8 °F 100% 29.87 in 2.5 mi SW 12.7 mph - 0.02 in Rain Light Rain
7:18 AM 62.6 °F - 60.8 °F 94% 29.86 in 3.0 mi SW 15.0 mph 21.9 mph 0.03 in Rain Light Rain
7:38 AM 62.6 °F - 60.8 °F 94% 29.86 in 2.5 mi SW 15.0 mph 21.9 mph 0.04 in Rain Light Rain
7:45 AM 62.6 °F - 60.8 °F 94% 29.86 in 3.0 mi SW 16.1 mph 21.9 mph 0.04 in Rain Light Rain
7:53 AM 62.1 °F - 60.1 °F 93% 29.86 in 2.5 mi SW 17.3 mph 24.2 mph 0.05 in Rain Light Rain
8:02 AM 62.6 °F - 60.8 °F 94% 29.85 in 5.0 mi SW 16.1 mph 25.3 mph 0.00 in Rain Light Rain
8:53 AM 62.1 °F - 60.1 °F 93% 29.83 in 10.0 mi SW 11.5 mph 26.5 mph 0.02 in   Overcast
9:53 AM 62.1 °F - 60.1 °F 93% 29.82 in 10.0 mi SW 13.8 mph 19.6 mph 0.00 in   Overcast
10:01 AM 62.6 °F - 60.8 °F 94% 29.81 in 10.0 mi SW 12.7 mph 24.2 mph N/A   Overcast
10:53 AM 63.0 °F - 60.1 °F 90% 29.79 in 10.0 mi WSW 10.4 mph 23.0 mph N/A   Overcast
11:01 AM 62.6 °F - 60.8 °F 94% 29.78 in 10.0 mi SW 10.4 mph 17.3 mph N/A   Overcast
11:08 AM 62.6 °F - 60.8 °F 94% 29.77 in 10.0 mi SW 18.4 mph 25.3 mph N/A   Overcast
11:53 AM 63.0 °F - 59.0 °F 87% 29.74 in 10.0 mi SW 11.5 mph 19.6 mph 0.00 in Rain Light Rain
12:38 PM 62.6 °F - 59.0 °F 88% 29.71 in 10.0 mi SW 9.2 mph 17.3 mph 0.01 in Rain Light Rain
12:53 PM 61.0 °F - 59.0 °F 93% 29.72 in 5.0 mi SW 11.5 mph - 0.03 in Rain Rain
1:53 PM 61.0 °F - 59.0 °F 93% 29.70 in 8.0 mi SW 6.9 mph - 0.09 in Rain Light Rain
2:53 PM 60.1 °F - 57.9 °F 93% 29.69 in 4.0 mi WSW 5.8 mph - 0.08 in Rain Rain
3:45 PM 57.2 °F - 53.6 °F 88% 29.71 in 10.0 mi WNW 11.5 mph - 0.04 in Rain Light Rain
3:53 PM 57.0 °F - 54.0 °F 89% 29.70 in 10.0 mi WNW 8.1 mph - 0.04 in Rain Light Rain
4:26 PM 53.6 °F - 51.8 °F 94% 29.73 in 9.0 mi WNW 10.4 mph 19.6 mph 0.01 in Rain Light Rain
4:39 PM 53.6 °F - 50.0 °F 88% 29.74 in 10.0 mi WNW 10.4 mph - 0.01 in Rain Light Rain
4:53 PM 52.0 °F - 50.0 °F 93% 29.73 in 10.0 mi Variable 3.5 mph - 0.01 in Rain Light Rain
5:53 PM 51.1 °F - 48.9 °F 92% 29.73 in 10.0 mi Calm Calm - 0.01 in Rain Light Rain
6:30 PM 50.0 °F - 46.4 °F 87% 29.73 in 10.0 mi WNW 6.9 mph - 0.00 in Rain Light Rain
6:53 PM 48.9 °F - 46.9 °F 93% 29.75 in 10.0 mi WNW 5.8 mph - 0.00 in Rain Light Rain
7:07 PM 48.2 °F - 46.4 °F 93% 29.75 in 10.0 mi WNW 9.2 mph - N/A   Overcast
7:53 PM 46.9 °F - 43.0 °F 86% 29.77 in 10.0 mi WNW 8.1 mph 16.1 mph 0.00 in   Overcast
8:53 PM 45.0 °F 40.1 °F 39.9 °F 82% 29.77 in 10.0 mi NW 9.2 mph - N/A   Clear
9:53 PM 44.1 °F 38.6 °F 39.0 °F 82% 29.80 in 10.0 mi WNW 10.4 mph 18.4 mph N/A   Partly Cloudy
10:53 PM 43.0 °F 40.3 °F 37.0 °F 80% 29.81 in 10.0 mi Variable 4.6 mph - N/A   Clear
11:53 PM 42.1 °F 38.4 °F 33.1 °F 70% 29.83 in 10.0 mi NW 5.8 mph - N/A   Clear